| time (UTC) | temp F | wind direction | speed knots | gust knots | rain 1hr in | rain 24hr in | rain mn in | humidity % | barometer mb |
| 20260504050520 | 54 | 224 | 0.0 | 2.6 | 0.00 | 0.06 | 0.00 | 71 | 1006.7 |
| 20260504050017 | 54 | 224 | 0.9 | 2.6 | 0.00 | 0.06 | 0.00 | 71 | 1006.7 |
| 20260504045522 | 54 | 224 | 0.9 | 2.6 | 0.00 | 0.06 | 0.06 | 71 | 1006.6 |
| 20260504045014 | 54 | 224 | 0.0 | 0.9 | 0.00 | 0.06 | 0.06 | 70 | 1006.6 |
| 20260504044513 | 55 | 224 | 0.0 | 0.9 | 0.00 | 0.06 | 0.06 | 70 | 1006.6 |
| 20260504044011 | 55 | 224 | 0.0 | 2.6 | 0.00 | 0.06 | 0.06 | 70 | 1006.6 |
| 20260504043509 | 55 | 224 | 0.0 | 2.6 | 0.00 | 0.06 | 0.06 | 69 | 1006.7 |
| 20260504042509 | 55 | 224 | 0.0 | 3.5 | 0.00 | 0.06 | 0.06 | 69 | 1006.7 |
| 20260504042011 | 56 | 224 | 0.0 | 3.5 | 0.00 | 0.06 | 0.06 | 68 | 1006.6 |
| 20260504041008 | 56 | 214 | 0.9 | 2.6 | 0.00 | 0.06 | 0.06 | 68 | 1006.6 |
| 20260504035508 | 57 | 214 | 0.9 | 3.5 | 0.00 | 0.06 | 0.06 | 67 | 1006.6 |
| 20260504035007 | 57 | 214 | 0.0 | 3.5 | 0.00 | 0.06 | 0.06 | 67 | 1006.7 |
| 20260504034507 | 57 | 214 | 0.0 | 2.6 | 0.00 | 0.06 | 0.06 | 66 | 1006.7 |
| 20260504033502 | 57 | 214 | 0.0 | 2.6 | 0.00 | 0.06 | 0.06 | 66 | 1006.7 |
| 20260504032954 | 58 | 214 | 0.9 | 3.5 | 0.00 | 0.06 | 0.06 | 66 | 1006.7 |
| 20260504032456 | 58 | 214 | 0.9 | 3.5 | 0.00 | 0.06 | 0.06 | 65 | 1006.8 |
| 20260504031955 | 58 | 214 | 0.0 | 3.5 | 0.00 | 0.06 | 0.06 | 65 | 1006.8 |
| 20260504031455 | 58 | 214 | 0.9 | 3.5 | 0.00 | 0.06 | 0.06 | 64 | 1006.7 |
| 20260504030950 | 59 | 214 | 0.9 | 3.5 | 0.00 | 0.06 | 0.06 | 63 | 1006.7 |
| 20260504030452 | 59 | 205 | 0.0 | 3.5 | 0.00 | 0.06 | 0.06 | 63 | 1006.7 |
| 20260504025950 | 59 | 205 | 0.9 | 5.2 | 0.00 | 0.06 | 0.06 | 62 | 1006.6 |
| 20260504024946 | 60 | 279 | 0.9 | 6.1 | 0.00 | 0.06 | 0.06 | 62 | 1006.7 |
| 20260504024450 | 60 | 150 | 0.0 | 2.6 | 0.00 | 0.06 | 0.06 | 62 | 1006.6 |
| 20260504023947 | 60 | 147 | 0.9 | 5.2 | 0.00 | 0.06 | 0.06 | 61 | 1006.6 |
| 20260504023444 | 60 | 179 | 0.9 | 5.2 | 0.00 | 0.06 | 0.06 | 61 | 1006.6 |
| 20260504022944 | 61 | 226 | 0.9 | 5.2 | 0.00 | 0.06 | 0.06 | 60 | 1006.6 |
| 20260504021440 | 62 | 185 | 0.0 | 2.6 | 0.00 | 0.06 | 0.06 | 58 | 1006.5 |
| 20260504020940 | 62 | 185 | 0.0 | 0.9 | 0.00 | 0.06 | 0.06 | 58 | 1006.4 |
| 20260504020441 | 62 | 185 | 0.0 | 0.9 | 0.00 | 0.06 | 0.06 | 57 | 1006.4 |
| 20260504015947 | 62 | 185 | 0.0 | 0.9 | 0.00 | 0.06 | 0.06 | 57 | 1006.3 |
| 20260504014934 | 63 | 185 | 0.0 | 2.6 | 0.00 | 0.06 | 0.06 | 55 | 1006.1 |
| 20260504014429 | 64 | 183 | 0.0 | 2.6 | 0.00 | 0.06 | 0.06 | 55 | 1005.9 |
| 20260504013417 | 64 | 167 | 0.0 | 3.5 | 0.00 | 0.06 | 0.06 | 53 | 1005.8 |
| 20260504012910 | 65 | 183 | 0.0 | 2.6 | 0.00 | 0.06 | 0.06 | 53 | 1005.9 |
| 20260504012412 | 65 | 182 | 0.0 | 2.6 | 0.00 | 0.06 | 0.06 | 52 | 1005.9 |
| 20260504011909 | 65 | 193 | 0.0 | 2.6 | 0.00 | 0.06 | 0.06 | 51 | 1005.8 |
| 20260504011409 | 66 | 193 | 0.9 | 2.6 | 0.00 | 0.06 | 0.06 | 51 | 1005.7 |
| 20260504010909 | 66 | 160 | 0.9 | 3.5 | 0.00 | 0.06 | 0.06 | 50 | 1005.7 |
| 20260504010411 | 66 | 160 | 0.9 | 6.1 | 0.00 | 0.06 | 0.06 | 49 | 1005.6 |
| 20260504005912 | 67 | 180 | 0.9 | 6.1 | 0.00 | 0.06 | 0.06 | 48 | 1005.5 |
| 20260504005408 | 67 | 189 | 0.9 | 5.2 | 0.00 | 0.06 | 0.06 | 47 | 1005.5 |
| 20260504004905 | 68 | 178 | 0.9 | 5.2 | 0.00 | 0.06 | 0.06 | 46 | 1005.5 |
| 20260504004408 | 68 | 179 | 0.9 | 5.2 | 0.00 | 0.06 | 0.06 | 46 | 1005.5 |
| 20260504003904 | 69 | 170 | 0.9 | 5.2 | 0.00 | 0.06 | 0.06 | 45 | 1005.6 |
| 20260504003406 | 69 | 136 | 0.9 | 6.1 | 0.00 | 0.06 | 0.06 | 44 | 1005.7 |
| 20260504002904 | 69 | 210 | 0.9 | 6.1 | 0.00 | 0.06 | 0.06 | 44 | 1005.6 |
| 20260504002404 | 70 | 168 | 0.9 | 5.2 | 0.00 | 0.06 | 0.06 | 43 | 1005.7 |
| 20260504001403 | 70 | 147 | 0.9 | 5.2 | 0.00 | 0.06 | 0.06 | 42 | 1005.6 |
| 20260504000416 | 71 | 282 | 2.6 | 8.7 | 0.00 | 0.06 | 0.06 | 40 | 1005.6 |
| 20260503235904 | 71 | 280 | 2.6 | 10.4 | 0.00 | 0.06 | 0.06 | 40 | 1005.6 |
| 20260503235356 | 71 | 250 | 3.5 | 10.4 | 0.00 | 0.06 | 0.06 | 41 | 1005.6 |
| 20260503233835 | 71 | 196 | 3.5 | 11.3 | 0.00 | 0.06 | 0.06 | 40 | 1005.6 |
| 20260503233330 | 71 | 236 | 4.3 | 13.9 | 0.00 | 0.06 | 0.06 | 41 | 1005.7 |
| 20260503232820 | 71 | 282 | 4.3 | 13.9 | 0.00 | 0.06 | 0.06 | 40 | 1005.6 |
| 20260503232317 | 71 | 240 | 4.3 | 13.9 | 0.00 | 0.06 | 0.06 | 40 | 1005.6 |
| 20260503231307 | 71 | 209 | 4.3 | 16.5 | 0.00 | 0.06 | 0.06 | 40 | 1005.7 |
| 20260503230812 | 71 | 264 | 4.3 | 18.2 | 0.00 | 0.06 | 0.06 | 40 | 1005.8 |
| 20260503225809 | 71 | 100 | 5.2 | 13.9 | 0.00 | 0.06 | 0.06 | 40 | 1005.9 |
| 20260503225306 | 71 | 266 | 7.8 | 18.2 | 0.00 | 0.06 | 0.06 | 40 | 1006.0 |
| 20260503224812 | 71 | 251 | 7.8 | 18.2 | 0.00 | 0.06 | 0.06 | 39 | 1005.9 |
| 20260503224310 | 71 | 263 | 5.2 | 13.9 | 0.00 | 0.06 | 0.06 | 40 | 1006.0 |
| 20260503223804 | 71 | 242 | 5.2 | 16.5 | 0.00 | 0.06 | 0.06 | 41 | 1006.0 |
| 20260503222811 | 71 | 301 | 5.2 | 18.2 | 0.00 | 0.06 | 0.06 | 41 | 1006.3 |
| 20260503222311 | 71 | 243 | 7.0 | 18.2 | 0.00 | 0.06 | 0.06 | 41 | 1006.3 |
| 20260503221807 | 71 | 251 | 7.8 | 19.1 | 0.00 | 0.06 | 0.06 | 41 | 1006.1 |
| 20260503221309 | 71 | 268 | 8.7 | 19.1 | 0.00 | 0.06 | 0.06 | 39 | 1006.1 |
| 20260503220803 | 71 | 257 | 7.0 | 19.1 | 0.00 | 0.06 | 0.06 | 40 | 1006.3 |
| 20260503220314 | 71 | 263 | 4.3 | 13.9 | 0.00 | 0.06 | 0.06 | 41 | 1006.0 |
| 20260503215318 | 71 | 238 | 4.3 | 19.1 | 0.00 | 0.06 | 0.06 | 44 | 1006.0 |
| 20260503214812 | 71 | 263 | 5.2 | 19.1 | 0.00 | 0.06 | 0.06 | 44 | 1006.1 |
| 20260503213313 | 70 | 255 | 4.3 | 18.2 | 0.00 | 0.06 | 0.06 | 43 | 1006.4 |
| 20260503212806 | 70 | 234 | 4.3 | 18.2 | 0.00 | 0.06 | 0.06 | 44 | 1006.5 |
| 20260503212306 | 70 | 220 | 4.3 | 18.2 | 0.00 | 0.06 | 0.06 | 44 | 1006.6 |
| 20260503211818 | 69 | 282 | 4.3 | 13.9 | 0.00 | 0.06 | 0.06 | 44 | 1006.7 |
| 20260503211308 | 69 | 266 | 5.2 | 13.9 | 0.00 | 0.06 | 0.06 | 45 | 1006.6 |
| 20260503210804 | 69 | 21 | 5.2 | 15.6 | 0.00 | 0.06 | 0.06 | 44 | 1006.8 |
| 20260503210308 | 69 | 253 | 4.3 | 15.6 | 0.00 | 0.06 | 0.06 | 44 | 1006.8 |
| 20260503205804 | 69 | 238 | 4.3 | 13.9 | 0.00 | 0.06 | 0.06 | 45 | 1006.8 |
| 20260503205304 | 69 | 184 | 4.3 | 13.9 | 0.00 | 0.06 | 0.06 | 44 | 1006.9 |
| 20260503204803 | 68 | 249 | 4.3 | 15.6 | 0.00 | 0.06 | 0.06 | 44 | 1007.0 |
| 20260503203753 | 68 | 287 | 5.2 | 19.1 | 0.00 | 0.06 | 0.06 | 45 | 1007.2 |
| 20260503203255 | 69 | 279 | 4.3 | 19.1 | 0.00 | 0.06 | 0.06 | 44 | 1007.3 |
| 20260503202254 | 68 | 145 | 4.3 | 13.9 | 0.00 | 0.06 | 0.06 | 46 | 1007.4 |
| 20260503201801 | 68 | 256 | 5.2 | 16.5 | 0.00 | 0.06 | 0.06 | 46 | 1007.5 |
| 20260503200753 | 67 | 251 | 5.2 | 19.1 | 0.00 | 0.06 | 0.06 | 45 | 1007.6 |
| 20260503200256 | 68 | 238 | 5.2 | 15.6 | 0.00 | 0.06 | 0.06 | 45 | 1007.8 |
| 20260503195249 | 67 | 132 | 7.0 | 23.5 | 0.00 | 0.06 | 0.06 | 45 | 1007.9 |
| 20260503194757 | 67 | 159 | 7.0 | 22.6 | 0.00 | 0.06 | 0.06 | 46 | 1007.9 |
| 20260503194252 | 67 | 227 | 5.2 | 22.6 | 0.00 | 0.06 | 0.06 | 47 | 1008.0 |
| 20260503193753 | 67 | 186 | 5.2 | 22.6 | 0.00 | 0.06 | 0.06 | 46 | 1008.0 |
| 20260503193247 | 67 | 211 | 5.2 | 13.9 | 0.00 | 0.06 | 0.06 | 46 | 1008.1 |
| 20260503192744 | 67 | 253 | 4.3 | 13.0 | 0.00 | 0.06 | 0.06 | 47 | 1008.1 |
| 20260503191742 | 66 | 238 | 5.2 | 13.9 | 0.00 | 0.06 | 0.06 | 48 | 1008.4 |
| 20260503191245 | 66 | 204 | 5.2 | 13.9 | 0.00 | 0.06 | 0.06 | 47 | 1008.6 |
| 20260503190241 | 65 | 261 | 7.0 | 20.9 | 0.00 | 0.06 | 0.06 | 47 | 1008.8 |
| 20260503185743 | 65 | 166 | 5.2 | 23.5 | 0.00 | 0.06 | 0.06 | 47 | 1008.8 |
| 20260503185245 | 65 | 288 | 7.0 | 23.5 | 0.00 | 0.06 | 0.06 | 45 | 1008.9 |
| 20260503184741 | 65 | 276 | 7.0 | 26.1 | 0.00 | 0.06 | 0.06 | 47 | 1008.8 |
| 20260503184243 | 65 | 168 | 7.0 | 26.1 | 0.00 | 0.06 | 0.06 | 47 | 1008.8 |
| 20260503183244 | 65 | 127 | 7.8 | 20.9 | 0.00 | 0.06 | 0.06 | 48 | 1008.9 |
| 20260503182737 | 65 | 182 | 5.2 | 19.1 | 0.00 | 0.06 | 0.06 | 46 | 1009.2 |
| 20260503182237 | 65 | 201 | 5.2 | 18.2 | 0.00 | 0.06 | 0.06 | 48 | 1009.3 |
| 20260503181739 | 65 | 251 | 5.2 | 18.2 | 0.00 | 0.06 | 0.06 | 48 | 1009.3 |
| 20260503180741 | 64 | 149 | 4.3 | 13.9 | 0.00 | 0.06 | 0.06 | 56 | 1009.5 |
| 20260503180238 | 63 | 127 | 5.2 | 16.5 | 0.00 | 0.06 | 0.06 | 57 | 1009.6 |
| 20260503175239 | 62 | 160 | 5.2 | 20.9 | 0.00 | 0.06 | 0.06 | 60 | 1009.7 |
| 20260503174740 | 61 | 153 | 7.0 | 20.9 | 0.00 | 0.06 | 0.06 | 59 | 1009.9 |
| 20260503174237 | 61 | 156 | 7.0 | 20.9 | 0.00 | 0.06 | 0.06 | 58 | 1009.7 |
| 20260503173743 | 61 | 211 | 5.2 | 19.1 | 0.00 | 0.06 | 0.06 | 59 | 1009.7 |
| 20260503173243 | 60 | 194 | 7.0 | 19.1 | 0.00 | 0.06 | 0.06 | 59 | 1009.7 |
| 20260503172736 | 60 | 137 | 5.2 | 18.2 | 0.00 | 0.06 | 0.06 | 61 | 1009.8 |
| 20260503172241 | 59 | 160 | 5.2 | 18.2 | 0.00 | 0.06 | 0.06 | 62 | 1009.7 |
| 20260503171741 | 59 | 211 | 5.2 | 16.5 | 0.00 | 0.06 | 0.06 | 60 | 1009.9 |
| 20260503171238 | 59 | 100 | 7.0 | 16.5 | 0.00 | 0.06 | 0.06 | 59 | 1009.9 |
| 20260503170742 | 58 | 178 | 7.0 | 15.6 | 0.00 | 0.06 | 0.06 | 58 | 1010.0 |
| 20260503170236 | 58 | 21 | 7.0 | 20.9 | 0.00 | 0.06 | 0.06 | 59 | 1010.3 |
| 20260503150715 | 48 | 144 | 3.5 | 10.4 | 0.04 | 0.06 | 0.06 | 82 | 1012.6 |
| 20260503150208 | 48 | 158 | 3.5 | 8.7 | 0.04 | 0.06 | 0.06 | 82 | 1012.8 |
| 20260503140145 | 50 | 185 | 0.9 | 7.8 | 0.01 | 0.01 | 0.01 | 78 | 1013.8 |
| 20260503131138 | 50 | 147 | 2.6 | 7.8 | 0.00 | 0.00 | 0.00 | 76 | 1013.7 |
| 20260503130639 | 50 | 209 | 2.6 | 5.2 | 0.00 | 0.00 | 0.00 | 75 | 1013.9 |
| 20260503130140 | 50 | 198 | 2.6 | 10.4 | 0.00 | 0.00 | 0.00 | 74 | 1014.1 |
| 20260503120132 | 47 | 245 | 2.6 | 8.7 | 0.00 | 0.00 | 0.00 | 64 | 1014.3 |
| 20260503110623 | 47 | 336 | 2.6 | 11.3 | 0.00 | 0.00 | 0.00 | 62 | 1013.8 |
| 20260503110120 | 47 | 155 | 2.6 | 11.3 | 0.00 | 0.00 | 0.00 | 62 | 1013.6 |
| 20260503100108 | 47 | 105 | 3.5 | 11.3 | 0.00 | 0.00 | 0.00 | 59 | 1014.1 |
| 20260503090107 | 47 | 145 | 2.6 | 8.7 | 0.00 | 0.00 | 0.00 | 58 | 1014.3 |
| 20260503081602 | 47 | 153 | 0.9 | 5.2 | 0.00 | 0.00 | 0.00 | 58 | 1014.6 |
| 20260503081103 | 47 | 172 | 0.9 | 6.1 | 0.00 | 0.00 | 0.00 | 58 | 1014.6 |
| 20260503080601 | 47 | 176 | 2.6 | 6.1 | 0.00 | 0.00 | 0.00 | 58 | 1014.7 |
| 20260503072549 | 46 | 144 | 0.9 | 7.8 | 0.00 | 0.00 | 0.00 | 58 | 1014.9 |
| 20260503072047 | 46 | 198 | 0.9 | 7.8 | 0.00 | 0.00 | 0.00 | 57 | 1014.9 |
| 20260503071538 | 46 | 206 | 0.9 | 5.2 | 0.00 | 0.00 | 0.00 | 57 | 1014.9 |
| 20260503071048 | 46 | 183 | 0.9 | 6.1 | 0.00 | 0.00 | 0.00 | 57 | 1015.0 |
| 20260503070544 | 46 | 222 | 2.6 | 6.1 | 0.00 | 0.00 | 0.00 | 57 | 1015.0 |
| 20260503055036 | 46 | 207 | 0.9 | 3.5 | 0.00 | 0.00 | 0.00 | 57 | 1015.5 |
| 20260503054534 | 46 | 157 | 0.9 | 6.1 | 0.00 | 0.00 | 0.00 | 57 | 1015.6 |
| 20260503054032 | 46 | 177 | 0.9 | 6.1 | 0.00 | 0.00 | 0.00 | 57 | 1015.6 |
| 20260503053535 | 46 | 207 | 0.9 | 5.2 | 0.00 | 0.00 | 0.00 | 57 | 1015.7 |
| 20260503053031 | 47 | 166 | 0.9 | 5.2 | 0.00 | 0.00 | 0.00 | 57 | 1015.7 |
| 20260503052531 | 47 | 164 | 0.9 | 3.5 | 0.00 | 0.00 | 0.00 | 57 | 1015.8 |
| 20260503052028 | 47 | 279 | 0.9 | 2.6 | 0.00 | 0.00 | 0.00 | 57 | 1015.9 |